This is the latest recevied weather packets stored in our database for station/object HG8LXL-2. If no packets are shown the sender has not sent any weather packets the latest 10 day(s).
| Time | Temp. | Humidity | Pressure | Rain* | Wind** | Luminosity | Snow |
|---|---|---|---|---|---|---|---|
| 1777616399 | 16.11° C | 21% | 1024.1 hPa | - | - | - | - |
| 1777616100 | 15.56° C | 22% | 1024 hPa | - | - | - | - |
| 1777615800 | 14.44° C | 24% | 1024.1 hPa | - | - | - | - |
| 1777615499 | 14.44° C | 25% | 1024.3 hPa | - | - | - | - |
| 1777615200 | 14.44° C | 25% | 1024.2 hPa | - | - | - | - |
| 1777614600 | 13.33° C | 26% | 1024.2 hPa | - | - | - | - |
| 1777614299 | 13.89° C | 25% | 1024.2 hPa | - | - | - | - |
| 1777613999 | 13.33° C | 26% | 1024.2 hPa | - | - | - | - |
| 1777613699 | 13.89° C | 26% | 1024.1 hPa | - | - | - | - |
| 1777613399 | 12.78° C | 26% | 1024.2 hPa | - | - | - | - |
| 1777613100 | 12.78° C | 27% | 1024.2 hPa | - | - | - | - |
| 1777612800 | 12.78° C | 27% | 1024.3 hPa | - | - | - | - |
| 1777612499 | 12.22° C | 28% | 1024.4 hPa | - | - | - | - |
| 1777612200 | 12.78° C | 27% | 1024.3 hPa | - | - | - | - |
| 1777611899 | 11.67° C | 28% | 1024.3 hPa | - | - | - | - |
| 1777611599 | 11.67° C | 28% | 1024.3 hPa | - | - | - | - |
| 1777611299 | 11.11° C | 28% | 1024.4 hPa | - | - | - | - |
| 1777610999 | 10.56° C | 29% | 1024.3 hPa | - | - | - | - |
| 1777610700 | 10.56° C | 29% | 1024.2 hPa | - | - | - | - |
| 1777610399 | 10.56° C | 29% | 1024.2 hPa | - | - | - | - |
| 1777610099 | 10.56° C | 30% | 1024.2 hPa | - | - | - | - |
| 1777609800 | 10.56° C | 29% | 1024.2 hPa | - | - | - | - |
| 1777609499 | 10° C | 30% | 1024.2 hPa | - | - | - | - |
| 1777609199 | 10° C | 30% | 1024 hPa | - | - | - | - |
| 1777608899 | 10° C | 31% | 1024.1 hPa | - | - | - | - |
* Rain since midnight (hover to see other rain measurements)
** Current wind speed in m/s (hover to see current wind gust speed)